Weather History for Dublin, VA

Change the Weather History Date:

Saturday, March 29, 2014

  Actual Average (KBCB) Record (KBCB)
Temperature  
Mean Temperature 47 °F 45 °F  
Max Temperature 57 °F 58 °F 79 °F (1989)
Min Temperature 37 °F 33 °F 17 °F (2001)
Degree Days  
Heating Degree Days 18 20  
Month to date heating degree days 689  
Since 1 July heating degree days 4737  
Cooling Degree Days 0 0  
Month to date cooling degree days 0  
Year to date cooling degree days 0  
Moisture  
Dew Point 50 °F    
Average Humidity 98    
Maximum Humidity 100    
Minimum Humidity 89    
Precipitation  
Precipitation 0.26 in 0.13 in 0.85 in (1984)
Month to date precipitation 3.38  
Year to date precipitation 9.27  
Snow  
Snow 0.00 in - - ()
Month to date snowfall  
Since 1 July snowfall  
Snow Depth -    
Sea Level Pressure  
Sea Level Pressure 29.87 in    
Wind  
Wind Speed 4 mph (ENE)    
Max Wind Speed 23 mph    
Max Gust Speed 29 mph    
Visibility 6 miles    
Events Rain , Thunderstorm    
T = Trace of Precipitation, MM = Missing Value Source: NWS Daily Summary

Daily Weather History Graph

Daily Weather History Graph

Search for Another Location

Airport:

Trip Planner

Search our weather history database for the weather conditions in past years. The results will help you decide how hot, cold, wet, or windy it might be!

Date:

Astronomy

Mar. 29, 2014 Rise Set
Actual Time 7:12 AM EDT 7:42 PM EDT
Civil Twilight 6:46 AM EDT 8:08 PM EDT
Nautical Twilight 6:16 AM EDT 8:39 PM EDT
Astronomical Twilight 5:44 AM EDT 9:10 PM EDT
Moon 6:18 AM EDT (3/29) 6:46 PM EDT (3/29)
Length of Visible Light 13h 22m
Length of Day
12h 29m
Waning Crescent, 2% of the Moon is Illuminated
Mar 29
Waning Crescent
Mar 30
New
Apr 7
First Quarter
Apr 15
Full
Apr 22
Last Quarter

Hourly Weather History & Observations

Time (EDT) Temp. Windchill Dew Point Humidity Pressure Visibility Wind Dir Wind Speed Gust Speed Precip Events Conditions
12:15 AM 50.0 °F - 49.3 °F 97% 30.12 in 10.0 mi Calm Calm - N/A   Overcast
12:35 AM 50.4 °F - 49.5 °F 97% 30.12 in 10.0 mi SW 3.5 mph - N/A   Overcast
12:55 AM 50.0 °F - 49.1 °F 97% 30.12 in 10.0 mi Calm Calm - N/A   Overcast
1:15 AM 49.1 °F - 48.2 °F 97% 30.11 in 10.0 mi Calm Calm - N/A   Overcast
1:35 AM 48.7 °F - 48.4 °F 99% 30.11 in 10.0 mi Calm Calm - N/A   Overcast
2:15 AM 48.4 °F - 48.0 °F 99% 30.09 in 10.0 mi Calm Calm - N/A   Overcast
2:35 AM 48.6 °F - 48.4 °F 99% 30.08 in 10.0 mi Calm Calm - N/A   Overcast
2:55 AM 48.4 °F - 48.4 °F 100% 30.07 in 10.0 mi East 3.5 mph - N/A   Overcast
3:15 AM 48.2 °F - 48.2 °F 100% 30.07 in 10.0 mi Calm Calm - N/A   Overcast
3:35 AM 48.6 °F - 48.6 °F 100% 30.06 in 7.0 mi Calm Calm - N/A   Overcast
3:55 AM 48.7 °F - 48.7 °F 100% 30.05 in 7.0 mi Calm Calm - N/A   Overcast
4:15 AM 48.2 °F - 48.2 °F 100% 30.03 in 5.0 mi Calm Calm - N/A Rain Light Rain
4:35 AM 47.7 °F - 47.7 °F 100% 30.02 in 4.0 mi Calm Calm - N/A   Mostly Cloudy
4:55 AM 46.8 °F - 46.8 °F 100% 30.01 in 0.8 mi Calm Calm - N/A   Overcast
5:15 AM 46.6 °F - 46.6 °F 100% 30.02 in 1.5 mi Calm Calm - N/A   Overcast
5:35 AM 46.4 °F - 46.4 °F 100% 30.02 in 2.5 mi Calm Calm - N/A   Overcast
5:55 AM 46.6 °F - 46.6 °F 100% 30.01 in 2.5 mi Calm Calm - N/A   Mostly Cloudy
6:15 AM 46.4 °F - 46.4 °F 100% 30.01 in 2.5 mi Calm Calm - N/A   Overcast
6:35 AM 46.9 °F - 46.9 °F 100% 30.01 in 2.0 mi Calm Calm - N/A   Overcast
6:55 AM 47.3 °F - 47.3 °F 100% 30.00 in 2.0 mi NE 3.5 mph - N/A   Overcast
7:15 AM 47.7 °F - 47.7 °F 100% 30.00 in 2.5 mi Calm Calm - N/A   Overcast
7:35 AM 47.7 °F - 47.7 °F 100% 30.00 in 1.5 mi Calm Calm - N/A   Drizzle
7:55 AM 47.7 °F - 47.7 °F 100% 30.01 in 1.0 mi Calm Calm - N/A Rain Rain
8:15 AM 47.8 °F - 47.8 °F 100% 30.01 in 0.8 mi Calm Calm - 0.01 in Rain Light Rain
8:35 AM 48.4 °F - 48.4 °F 100% 30.00 in 1.0 mi East 3.5 mph - 0.03 in Rain Light Rain
8:55 AM 49.3 °F - 49.3 °F 100% 30.00 in 1.0 mi East 3.5 mph - 0.04 in   Drizzle
9:15 AM 49.6 °F - 49.6 °F 100% 29.99 in 1.0 mi East 5.8 mph - N/A   Overcast
9:35 AM 50.0 °F - 50.0 °F 100% 29.98 in 1.0 mi East 4.6 mph - N/A   Overcast
9:55 AM 50.2 °F - 50.2 °F 100% 29.96 in 1.2 mi ENE 6.9 mph - N/A Rain Rain
10:15 AM 51.3 °F - 51.3 °F 100% 29.95 in 1.5 mi East 5.8 mph - N/A Rain Light Rain
10:35 AM 51.8 °F - 51.8 °F 100% 29.95 in 3.0 mi East 5.8 mph - N/A   Overcast
10:55 AM 51.8 °F - 51.8 °F 100% 29.93 in 2.5 mi ENE 9.2 mph - N/A   Overcast
11:15 AM 52.2 °F - 52.2 °F 100% 29.92 in 3.0 mi ENE 8.1 mph - N/A   Overcast
11:35 AM 52.7 °F - 52.7 °F 100% 29.90 in 2.5 mi ENE 8.1 mph - 0.01 in   Overcast
11:55 AM 52.7 °F - 52.7 °F 100% 29.89 in 3.0 mi ENE 5.8 mph - 0.01 in   Overcast
12:15 PM 53.1 °F - 53.1 °F 100% 29.87 in 3.0 mi ENE 6.9 mph - N/A   Overcast
12:35 PM 53.2 °F - 53.2 °F 100% 29.86 in 2.0 mi NE 6.9 mph - N/A Rain Rain
12:55 PM 53.6 °F - 53.6 °F 100% 29.84 in 3.0 mi ENE 8.1 mph - 0.01 in   Light Drizzle
1:15 PM 53.8 °F - 53.8 °F 100% 29.83 in 4.0 mi ENE 8.1 mph - N/A   Overcast
1:35 PM 53.6 °F - 53.6 °F 100% 29.81 in 5.0 mi East 6.9 mph - N/A Rain Rain
1:55 PM 53.8 °F - 53.8 °F 100% 29.79 in 2.5 mi East 5.8 mph - 0.01 in Rain Rain
2:15 PM 53.6 °F - 53.6 °F 100% 29.77 in 4.0 mi East 5.8 mph - N/A Rain Light Rain
2:35 PM 54.0 °F - 54.0 °F 100% 29.77 in 2.0 mi East 3.5 mph - N/A Rain Rain
2:55 PM 53.8 °F - 53.8 °F 100% 29.74 in 4.0 mi ENE 4.6 mph - N/A   Light Drizzle
3:15 PM 54.1 °F - 54.1 °F 100% 29.73 in 4.0 mi ENE 4.6 mph - N/A   Overcast
3:35 PM 54.1 °F - 54.1 °F 100% 29.73 in 3.0 mi ENE 3.5 mph - N/A Rain Light Rain
3:55 PM 54.5 °F - 54.5 °F 100% 29.71 in 2.0 mi ENE 4.6 mph - 0.01 in Rain Light Rain
4:15 PM 55.4 °F - 55.4 °F 100% 29.70 in 4.0 mi ENE 3.5 mph - N/A   Overcast
4:35 PM 55.6 °F - 55.6 °F 100% 29.68 in 10.0 mi East 4.6 mph - N/A   Overcast
4:55 PM 55.8 °F - 55.8 °F 100% 29.67 in 10.0 mi East 3.5 mph - N/A Rain Light Rain
5:15 PM 56.3 °F - 56.3 °F 100% 29.66 in 10.0 mi SE 3.5 mph - N/A   Overcast
5:35 PM 57.0 °F - 57.0 °F 100% 29.65 in 10.0 mi South 3.5 mph - N/A   Overcast
5:55 PM 57.9 °F - 57.9 °F 100% 29.64 in 10.0 mi South 4.6 mph - N/A   Overcast
6:15 PM 57.9 °F - 57.9 °F 100% 29.63 in 10.0 mi Calm Calm - N/A   Overcast
6:35 PM 57.4 °F - 57.4 °F 100% 29.63 in 7.0 mi Calm Calm - N/A   Light Drizzle
6:55 PM 57.2 °F - 57.2 °F 100% 29.63 in 10.0 mi South 3.5 mph - N/A Rain Light Rain
7:15 PM 56.8 °F - 56.7 °F 99% 29.63 in 3.0 mi SW 5.8 mph - 0.06 in Rain Heavy Rain
7:35 PM 55.6 °F - 55.6 °F 100% 29.63 in 5.0 mi West 5.8 mph - 0.11 in Rain Rain
7:55 PM 55.2 °F - 55.2 °F 100% 29.63 in 7.0 mi WSW 8.1 mph - 0.13 in Rain Rain
8:15 PM 53.2 °F - 53.2 °F 100% 29.65 in 10.0 mi West 15.0 mph 18.4 mph 0.01 in Rain Rain
8:35 PM 51.8 °F - 50.7 °F 96% 29.66 in 10.0 mi West 13.8 mph 20.7 mph 0.02 in Rain Light Rain
8:55 PM 49.6 °F - 47.7 °F 93% 29.68 in 10.0 mi West 12.7 mph 17.3 mph 0.02 in Rain , Thunderstorm Light Thunderstorms and Rain
9:15 PM 48.4 °F - 45.7 °F 90% 29.69 in 10.0 mi West 12.7 mph 19.6 mph N/A   Overcast
9:35 PM 46.9 °F - 43.9 °F 89% 29.70 in 10.0 mi West 16.1 mph 21.9 mph N/A Rain Rain
9:55 PM 45.1 °F 38.1 °F 42.1 °F 89% 29.70 in 10.0 mi WNW 16.1 mph 25.3 mph N/A   Overcast
10:15 PM 43.0 °F 33.8 °F 40.1 °F 90% 29.73 in 10.0 mi WNW 23.0 mph 27.6 mph N/A   Overcast
10:35 PM 41.7 °F 33.4 °F 38.8 °F 89% 29.75 in 10.0 mi West 17.3 mph 26.5 mph N/A   Overcast
10:55 PM 39.6 °F 29.7 °F 37.6 °F 93% 29.76 in 7.0 mi WNW 20.7 mph 28.8 mph N/A Rain Light Rain
11:15 PM 38.1 °F 28.1 °F 35.8 °F 91% 29.76 in 3.0 mi WNW 19.6 mph 26.5 mph 0.02 in Rain Rain
11:35 PM 37.4 °F 27.8 °F 34.7 °F 90% 29.77 in 7.0 mi West 17.3 mph 27.6 mph 0.03 in   Overcast
11:55 PM 37.0 °F 27.7 °F 34.0 °F 89% 29.77 in 10.0 mi WNW 16.1 mph 21.9 mph 0.03 in   Overcast